SCP
0 0 0 0 0 0 -0 0 0 0 0 0 0 0 0 0 0 0 -0 -0 -0 -0 -0 -0 0 -0 -0 -0 -0 -0 -0 -0 -0 -0 -0 -0 -0 -0 -0 -0 -0 -0 -0 -0 -0 -0 -0 -0 -0
0 0 1 0 -0 -0 0 0 0 0 0 0 0 0 0 0 0 0 -0 -0 -0 -0 -0 -0 0 -0 -0 -0 -0 -0 -0 -0 -0 -0 -0 -0 -0 -0 -0 -0 -0 -0 -0 -0 -0 -0 -0 -0 -0
0 0 0 -0 -0 -0 -0 0 0 0 0 0 0 0 0 0 0 -0 -0 -0 -0 -0 -0 -0 -0 -0 -0 -0 -0 -0 -0 -0 -0 -0 0 -0 -0 0 0 -0 -0 -0 -0 -0 -0 -0 -0 -0 -0
0 0 0 -0 0 0 0 0 0 0 0 0 0 0 0 0 0 -0 -0 -0 -0 -0 -0 -0 -0 -0 -0 -0 -0 -0 -0 -0 -0 0 0 0 0 -0 0 0 -0 -0 -0 -0 -0 -0 -0 -0 -0
0 -0 -0 -0 -0 0 -0 0 0 0 0 0 0 0 -0 0 -0 -0 -0 -0 -0 -0 -0 -0 -0 -0 -0 -0 -0 -0 -0 -0 -0 0 0 0 0 0 0 0 0 0 -0 -0 -0 -0 -0 -0 -0
0 0 -0 0 -0 0 0 0 0 0 0 0 0 0 0 -0 0 -0 -0 -0 -0 -0 -0 -0 -0 -0 -0 -0 -0 -0 -0 -0 -0 -0 0 0 0 0 0 0 0 0 0 -0 -0 -0 -0 -0 -0
-0 -0 -0 0 0 0 0 0 0 0 0 0 0 0 0 0 -0 -0 -0 -0 -0 -0 -0 -0 -0 -0 -0 -0 -0 -0 -0 -0 -0 -0 -0 -0 -0 -0 0 -0 0 0 0 -0 -0 -0 -0 -0 -0
-0 0 -0 0 0 0 0 0 0 0 0 0 0 0 0 0 -0 -0 -0 0 -0 -0 -0 -0 -0 -0 -0 -0 -0 -0 -0 -0 -0 -0 -0 -0 -0 0 -0 -0 -0 0 0 -0 -0 0 0 -0 -0
-0 0 -0 0 0 0 0 0 0 0 0 0 0 0 0 -0 -0 -0 -0 -0 -0 -0 -0 -0 -0 -0 -0 -0 -0 -0 -0 -0 -0 -0 -0 -0 0 -0 0 0 -0 0 0 0 0 0 0 0 -0
0 0 0 0 0 0 0 0 0 0 0 0 0 0 -0 -0 -0 -0 -0 -0 -0 -0 -0 -0 -0 -0 -0 -0 -0 -0 -0 -0 -0 -0 -0 -0 -0 0 -0 -0 -0 -0 0 0 0 0 0 0 0
0 0 0 0 0 0 0 0 0 0 0 0 0 0 -0 -0 -0 -0 0 0 -0 -0 -0 -0 -0 -0 -0 -0 -0 -0 -0 -0 -0 -0 -0 -0 0 0 0 -0 -0 -0 -0 -0 0 0 0 0 0
-0 -0 0 -0 -0 0 0 0 0 0 0 0 0 0 -0 -0 -0 -0 0 0 -0 -0 -0 -0 -0 -0 -0 -0 -0 -0 -0 -0 -0 -0 -0 -0 0 -0 -0 -0 -0 -0 0 0 0 0 0 0 0
0 -0 -0 0 0 0 0 0 0 0 0 0 0 -0 0 -0 -0 -0 -0 0 -0 -0 -0 -0 -0 -0 -0 -0 -0 -0 -0 -0 -0 -0 -0 -0 -0 -0 -0 -0 -0 0 0 -0 -0 -0 0 0 -0
-0 -0 -0 0 0 0 0 0 0 0 0 0 -0 -0 0 0 -0 -0 -0 -0 -0 -0 -0 -0 -0 -0 -0 -0 -0 -0 -0 -0 -0 -0 -0 -0 -0 -0 -0 -0 -0 -0 -0 -0 0 -0 -0 0 0
-0 -0 -0 -0 -0 0 0 0 0 0 -0 -0 0 0 0 0 0 -0 0 -0 0 0 -0 -0 -0 -0 -0 -0 -0 -0 0 -0 0 -0 -0 -0 -0 -0 -0 -0 -0 -0 0 0 0 0 0 0 -0
0 0 0 0 0 0 0 0 0 0 0 -0 -0 0 0 0 -0 -0 0 0 -0 -0 -0 -0 0 0 -0 -0 0 0 -0 -0 -0 -0 -0 -0 -0 -0 -0 -0 -0 -0 -0 0 0 0 0 0 -0
0 0 0 -0 0 -0 0 0 0 0 0 0 0 0 0 0 -0 0 0 0 -0 -0 -0 -0 -0 0 0 0 0 0 0 -0 -0 -0 -0 0 0 -0 -0 -0 -0 0 0 -0 -0 0 0 0 0
0 0 0 -0 -0 -0 0 0 0 0 0 0 0 0 0 0 0 0 0 0 0 -0 -0 -0 -0 0 0 0 0 -0 0 -0 -0 -0 0 -0 -0 0 0 0 -0 0 0 0 -0 -0 -0 -0 0
0 0 0 0 -0 -0 0 0 0 0 0 0 0 -0 -0 -0 0 0 0 0 0 0 -0 -0 -0 -0 0 0 0 0 0 0 0 -0 -0 -0 0 0 0 0 0 0 0 0 0 -0 0 0 0
0 0 0 0 0 0 0 0 0 0 -0 0 0 -0 -0 -0 0 0 0 0 0 -0 -0 -0 -0 -0 -0 0 0 0 0 0 -0 0 0 -0 -0 0 0 0 0 0 0 0 0 0 0 0 0
0 0 0 0 0 0 0 0 -0 0 0 0 0 -0 -0 -0 -0 0 0 0 0 0 0 0 0 -0 -0 -0 0 0 0 0 -0 -0 0 0 0 -0 0 0 0 0 0 0 0 0 0 0 0
0 0 0 -0 0 0 0 0 -0 0 -0 -0 -0 -0 -0 -0 -0 -0 0 0 0 0 0 0 -0 -0 -0 -0 0 0 0 0 0 0 0 -0 0 -0 -0 0 0 0 0 0 0 1 0 0 0
0 0 0 -0 0 0 0 0 -0 0 -0 -0 -0 -0 0 0 -0 0 0 0 0 0 0 0 0 0 0 0 0 0 0 0 0 0 -0 -0 -0 -0 0 0 0 0 0 1 1 1 1 0 0
0 0 0 0 0 0 0 0 0 0 0 -0 0 0 -0 -0 0 -0 0 0 0 0 -0 -0 0 0 -0 0 0 0 0 0 0 0 0 -0 -0 -0 -0 0 0 0 1 1 1 1 1 1 1
0 0 0 0 0 0 0 0 0 -0 0 0 -0 0 -0 -0 0 0 0 0 0 0 0 -0 -0 0 0 0 0 0 0 0 0 0 0 0 0 0 -0 -0 0 0 0 1 1 1 1 1 1
0 0 0 0 0 0 0 -0 0 0 0 0 0 0 0 -0 -0 0 0 0 0 0 0 0 -0 0 0 0 0 0 0 0 0 0 0 0 0 0 0 -0 0 0 0 0 0 0 0 0 0
0 0 0 0 0 0 0 0 0 0 0 0 0 0 -0 0 0 -0 0 0 0 0 0 -0 -0 -0 0 0 0 0 0 0 0 0 0 0 0 0 0 0 0 0 0 0 0 0 0 0 0
0 0 0 0 0 0 0 0 -0 -0 0 0 -0 -0 -0 -0 -0 0 0 0 1 0 0 0 0 0 0 0 0 0 0 0 0 0 0 0 -0 0 0 0 0 0 0 0 0 0 0 0 0
0 0 0 0 0 0 0 -0 -0 0 -0 -0 -0 -0 -0 -0 -0 0 0 1 1 1 0 1 0 0 0 0 0 0 0 0 0 0 0 0 0 -0 0 0 0 0 0 0 0 0 0 0 0
0 0 0 0 0 0 0 0 0 -0 -0 -0 -0 -0 -0 0 1 0 0 0 1 1 1 1 0 0 0 0 0 0 0 0 0 0 0 0 0 0 0 0 0 0 0 0 0 0 0 0 0
Wind_Speed_500mb
12 14 14 7 1 5 5 8 5 6 6 3 22 8 7 4 3 3 21 56 53 52 49 44 38 34 34 32 35 38 37 37 34 29 26 26 25 23 24 25 24 23 22 22 24 24 24 24 24
16 17 7 5 6 8 5 5 9 7 10 18 17 14 4 4 3 8 47 55 56 53 48 45 39 33 35 34 37 39 39 37 32 28 27 25 25 22 22 23 24 25 22 21 24 23 22 25 23
19 18 6 5 5 11 6 5 6 16 9 4 8 11 4 4 3 33 55 65 59 53 49 45 41 33 35 33 36 39 39 35 29 24 23 22 21 19 21 21 22 25 21 17 19 22 21 24 24
18 6 6 7 14 6 6 5 3 3 5 6 13 10 8 6 18 38 65 69 60 52 50 45 41 35 36 34 35 36 36 33 28 22 19 17 17 16 16 19 20 19 16 15 16 20 21 25 23
12 5 6 5 8 5 3 6 8 3 4 7 2 7 10 10 20 43 64 67 59 54 50 46 40 35 35 33 34 35 34 33 26 20 17 16 16 16 16 16 17 19 15 9 12 17 22 24 18
5 2 4 8 8 10 2 11 7 2 3 12 16 15 6 8 22 53 61 62 56 53 51 46 40 36 34 33 32 33 32 29 26 20 18 17 16 15 13 12 13 15 18 17 14 15 19 20 17
7 5 4 4 5 5 2 16 8 7 5 6 23 10 8 19 31 51 58 58 55 52 51 47 43 38 33 31 30 29 29 27 24 21 19 17 16 15 11 9 9 11 13 15 15 17 18 20 19
4 4 4 2 3 7 8 15 11 13 4 19 13 9 13 33 43 50 58 57 55 53 50 47 44 40 34 30 29 29 27 26 24 22 20 19 19 17 16 16 10 11 12 18 18 18 19 18 21
4 1 4 5 7 5 13 10 9 11 17 9 5 5 25 44 45 48 56 55 56 55 52 49 45 40 35 31 30 30 29 28 27 25 23 21 19 15 17 17 19 19 17 19 21 24 23 24 24
3 4 6 5 13 5 16 17 21 11 12 8 8 9 43 45 47 51 53 54 57 57 55 52 49 46 41 37 34 34 32 31 29 27 26 23 20 21 25 24 28 26 25 23 25 29 28 29 27
5 6 7 13 21 10 16 12 12 11 11 18 21 35 51 47 43 44 51 51 50 50 51 52 50 49 45 42 37 37 34 30 30 28 27 27 25 24 26 24 25 20 17 18 23 28 27 32 31
7 18 12 13 5 12 22 17 9 19 4 7 17 35 56 53 47 44 47 47 46 48 47 47 49 48 45 42 40 38 35 33 30 29 29 31 29 28 26 27 24 27 29 24 22 24 29 30 35
11 14 18 21 7 8 27 24 11 28 9 17 25 41 49 50 47 42 40 42 44 42 41 40 40 42 45 44 42 39 36 34 32 30 29 32 29 26 26 24 26 24 23 21 21 22 25 28 31
21 24 26 12 8 17 22 14 13 20 18 30 32 42 44 44 46 42 44 42 43 43 40 37 32 32 38 42 43 40 35 34 34 27 25 27 29 29 28 26 23 24 22 20 21 20 19 29 31
16 15 14 23 7 4 16 8 20 19 32 35 33 35 39 43 45 48 42 42 42 44 41 37 31 28 29 33 39 40 35 34 32 30 27 26 29 30 29 28 29 25 27 29 27 27 28 26 27
7 5 9 12 14 6 11 11 5 23 38 35 33 33 34 43 47 46 47 46 49 43 41 24 32 25 27 33 35 35 33 35 35 34 35 34 36 36 33 31 32 28 27 26 28 28 28 29 28
13 5 9 10 10 8 6 7 14 24 30 33 32 33 35 34 39 43 45 49 50 47 46 42 34 24 20 29 34 33 32 34 37 40 42 43 41 41 41 37 35 34 33 32 29 29 28 30 27
5 6 9 13 15 10 4 4 4 20 28 32 34 31 32 35 31 33 38 38 42 41 36 34 44 37 27 20 27 32 26 31 37 40 46 42 42 42 45 41 40 37 40 37 36 35 34 29 26
2 6 14 12 4 3 6 1 5 14 25 30 34 36 37 37 32 30 37 35 30 30 31 29 34 32 33 35 25 27 34 39 44 54 50 39 40 41 47 48 44 43 40 40 35 33 37 38 34
5 11 13 6 7 3 1 4 4 11 26 32 33 35 39 35 37 29 30 32 25 22 20 25 27 25 15 18 23 21 28 28 46 49 39 38 43 38 44 49 53 51 49 45 41 39 37 36 34
6 10 6 10 2 8 4 7 6 7 7 18 25 34 35 38 35 32 33 39 32 26 15 11 25 31 30 8 11 23 19 19 23 17 13 17 38 42 45 51 57 56 57 55 46 43 39 38 35
12 9 11 7 12 4 4 8 10 10 13 10 23 28 32 34 40 38 29 26 37 38 30 10 10 16 18 14 8 17 21 10 15 16 17 43 46 51 59 62 62 67 62 57 52 46 42 40 41
3 5 4 5 8 3 6 8 7 3 19 21 22 23 24 23 29 25 24 18 21 26 35 24 7 5 3 7 8 10 15 20 18 21 20 30 36 40 44 50 62 65 64 63 56 52 50 47 46
7 6 5 6 3 7 3 7 13 9 17 14 18 21 18 11 10 11 10 8 12 21 30 26 22 2 2 6 8 7 12 14 11 14 23 29 34 42 40 36 37 50 59 60 56 50 51 52 49
8 9 5 7 5 6 3 6 17 12 11 13 32 25 18 16 14 11 10 8 10 20 26 22 21 26 13 9 11 8 10 6 14 20 23 27 33 37 47 41 27 31 43 48 49 47 50 52 46
14 9 7 9 11 9 6 9 2 4 6 13 21 16 24 24 16 12 17 17 16 19 23 23 20 16 13 11 8 8 8 8 17 19 22 24 30 36 43 44 32 17 13 29 34 30 29 38 45
12 8 6 10 2 6 1 8 21 15 12 14 22 22 35 28 16 15 24 25 24 27 26 25 27 22 14 12 13 13 6 9 16 21 24 26 28 34 37 38 36 24 16 17 24 29 32 31 30
3 14 7 1 7 13 6 7 12 5 22 19 24 36 34 27 14 16 24 29 27 22 26 29 22 18 20 17 9 10 4 13 14 16 21 25 29 33 35 29 30 31 11 19 26 28 25 25 25
8 9 6 8 3 6 7 9 3 6 9 29 31 38 39 30 26 24 30 33 32 29 23 22 23 20 16 12 7 2 6 10 14 17 21 26 31 35 37 30 25 24 15 9 9 15 26 29 20
6 6 12 10 11 1 5 7 3 11 12 28 26 27 37 37 34 32 33 31 32 27 24 20 15 13 12 8 9 12 12 14 17 20 24 30 36 40 42 39 34 27 20 15 12 13 10 22 35
Wind_Direction_500mb
17 11 358 15 105 50 56 75 333 60 143 103 157 178 184 99 199 47 160 163 163 160 155 155 151 146 142 144 143 150 150 147 138 129 131 134 125 120 120 124 125 124 125 126 125 125 125 124 119
17 1 22 355 49 62 50 359 39 41 92 119 130 116 116 100 81 147 151 159 163 159 157 156 153 149 149 147 150 154 153 149 143 142 142 134 129 128 125 131 127 119 118 128 134 133 134 130 124
7 12 351 50 60 52 44 52 73 117 108 118 127 74 59 43 235 156 159 157 162 162 160 158 155 150 155 152 155 158 158 156 154 148 146 140 136 135 133 134 131 138 148 138 132 131 133 135 128
5 18 33 46 40 64 343 74 119 145 79 108 115 78 68 32 155 153 160 159 163 164 163 161 161 159 160 159 158 160 165 163 163 160 158 154 149 148 144 141 142 138 145 145 143 139 142 141 136
358 36 32 34 10 4 35 101 139 130 71 75 126 80 82 30 144 159 162 162 166 165 165 164 165 163 163 161 164 166 169 172 174 174 169 169 161 154 152 149 151 149 158 160 154 149 149 151 155
31 49 38 19 2 333 49 138 130 135 79 112 104 105 85 118 154 163 165 165 168 168 167 168 168 167 166 164 163 170 177 180 184 186 187 183 177 171 158 158 161 168 177 179 189 169 168 173 178
31 359 22 302 327 303 199 140 139 137 132 114 138 104 133 158 162 165 169 171 171 174 174 173 170 170 173 174 171 175 181 189 194 196 199 198 198 198 193 194 186 194 198 201 197 193 190 192 198
99 324 311 283 287 284 166 147 154 151 135 138 156 148 170 172 167 169 173 175 178 182 184 184 179 177 180 184 186 188 195 197 201 205 210 206 216 218 219 219 229 230 228 220 225 215 210 212 216
116 157 240 257 210 245 167 148 146 145 142 162 172 154 171 160 164 169 173 180 186 191 194 197 199 199 199 202 206 204 207 211 212 216 220 222 221 230 235 238 239 251 254 251 228 232 226 224 221
71 330 267 261 249 227 185 158 159 164 167 161 123 126 159 161 165 171 177 185 192 196 201 205 210 214 217 217 218 220 221 224 226 228 231 234 237 236 255 250 243 249 257 270 240 229 229 233 226
177 243 285 300 247 238 176 173 173 167 203 208 181 155 160 167 173 180 186 189 193 198 204 209 214 219 222 224 225 225 227 231 237 242 241 238 241 246 249 252 250 254 256 265 250 237 228 227 233
271 253 263 293 275 173 162 170 201 207 284 222 193 164 167 174 178 183 190 196 198 200 207 214 219 222 223 228 231 232 236 242 246 251 253 251 247 249 254 257 257 255 267 274 258 243 236 236 232
210 314 304 296 231 206 153 185 199 214 278 164 162 165 174 181 187 190 194 201 206 210 215 222 228 229 229 230 235 238 246 253 256 263 262 258 259 252 256 262 265 266 259 262 255 248 246 243 241
306 308 304 342 212 156 162 184 180 196 166 151 166 174 182 187 193 200 206 208 213 214 220 225 232 236 238 237 240 244 248 254 259 268 267 265 258 254 256 262 271 260 255 249 250 249 252 246 243
303 326 44 27 349 359 123 146 229 168 163 159 169 185 191 197 200 209 213 219 223 224 227 230 233 241 242 242 242 246 252 254 255 264 269 268 271 270 263 267 269 269 269 256 251 252 252 252 249
353 36 7 7 12 11 176 252 210 170 171 170 175 195 201 209 217 218 225 228 231 233 235 223 221 249 248 255 247 247 252 257 256 262 269 271 271 277 274 269 265 269 264 256 252 252 253 252 249
21 29 342 318 14 323 169 285 350 175 186 177 183 202 210 218 229 231 235 241 245 249 250 239 242 253 265 256 250 254 258 263 266 268 270 271 270 272 275 275 268 263 261 257 248 251 253 253 252
359 351 315 309 345 2 208 197 22 181 191 194 195 206 219 221 234 241 247 247 249 254 254 256 242 251 256 255 250 250 255 261 266 275 278 278 269 265 269 271 271 268 262 258 252 251 252 254 252
173 282 302 326 342 21 6 291 331 198 202 204 212 215 227 232 238 260 250 252 255 245 249 249 248 252 263 262 263 262 260 272 285 280 273 277 281 267 266 266 266 265 263 261 258 256 251 252 256
200 287 306 279 350 272 86 15 315 227 217 217 216 226 233 240 244 249 246 245 254 245 254 251 235 234 283 272 261 279 270 301 315 294 279 279 281 279 274 271 267 265 261 259 254 251 253 253 257
221 264 297 305 75 74 147 271 245 228 242 215 224 235 240 245 252 260 258 247 240 240 254 250 237 248 263 224 242 245 280 351 20 20 39 331 299 286 277 266 264 264 261 255 256 254 253 257 257
276 205 275 245 196 246 302 277 255 223 254 224 225 231 237 242 252 268 271 250 251 245 234 226 213 226 222 219 285 231 230 318 306 309 334 307 304 295 283 272 264 259 254 253 254 255 253 253 253
272 200 15 102 139 206 161 256 271 272 243 229 206 227 241 242 248 259 260 268 255 232 223 211 168 53 228 274 250 224 267 301 314 315 327 328 326 323 308 284 264 256 251 248 247 251 249 251 253
152 212 89 93 119 254 103 255 270 226 238 213 200 219 218 223 211 231 213 224 223 213 210 214 219 199 356 203 169 210 286 294 311 330 338 350 356 356 343 316 276 256 247 243 241 245 249 250 252
175 193 190 214 199 271 130 215 264 276 252 233 184 194 195 182 187 164 161 178 183 186 191 201 218 227 291 157 176 208 238 232 315 325 337 344 349 3 8 351 329 275 250 237 236 242 252 242 246
190 237 229 241 256 296 177 237 252 319 193 144 153 173 178 183 194 134 131 131 148 158 163 173 179 182 166 149 169 202 183 299 319 327 331 334 344 346 351 1 359 357 269 230 220 225 234 239 245
152 195 77 117 101 256 275 265 266 226 190 179 166 168 182 182 177 149 126 124 127 133 136 143 150 158 160 165 165 170 208 315 325 328 340 343 337 336 336 340 355 358 288 262 237 236 239 243 259
281 132 171 165 221 250 237 271 259 202 206 205 180 189 180 169 142 109 116 120 120 117 126 132 144 156 153 148 151 178 243 330 348 358 3 5 1 358 354 340 341 353 327 258 230 232 228 225 233
143 191 65 109 281 248 274 284 249 287 243 191 197 194 169 150 152 146 143 135 132 129 131 135 138 141 139 132 93 41 3 29 31 21 12 7 5 5 5 4 354 358 349 317 281 256 236 237 251
211 181 204 226 189 216 325 297 212 264 220 187 185 169 160 156 153 153 149 148 142 137 134 141 145 145 139 131 82 73 61 53 43 32 28 23 15 10 8 7 7 349 330 339 280 269 287 260 260
Wind_Speed_850mb
12 14 14 7 1 5 5 8 5 6 6 3 22 8 7 4 3 3 21 56 53 52 49 44 38 34 34 32 35 38 37 37 34 29 26 26 25 23 24 25 24 23 22 22 24 24 24 24 24
16 17 7 5 6 8 5 5 9 7 10 18 17 14 4 4 3 8 47 55 56 53 48 45 39 33 35 34 37 39 39 37 32 28 27 25 25 22 22 23 24 25 22 21 24 23 22 25 23
19 18 6 5 5 11 6 5 6 16 9 4 8 11 4 4 3 33 55 65 59 53 49 45 41 33 35 33 36 39 39 35 29 24 23 22 21 19 21 21 22 25 21 17 19 22 21 24 24
18 6 6 7 14 6 6 5 3 3 5 6 13 10 8 6 18 38 65 69 60 52 50 45 41 35 36 34 35 36 36 33 28 22 19 17 17 16 16 19 20 19 16 15 16 20 21 25 23
12 5 6 5 8 5 3 6 8 3 4 7 2 7 10 10 20 43 64 67 59 54 50 46 40 35 35 33 34 35 34 33 26 20 17 16 16 16 16 16 17 19 15 9 12 17 22 24 18
5 2 4 8 8 10 2 11 7 2 3 12 16 15 6 8 22 53 61 62 56 53 51 46 40 36 34 33 32 33 32 29 26 20 18 17 16 15 13 12 13 15 18 17 14 15 19 20 17
7 5 4 4 5 5 2 16 8 7 5 6 23 10 8 19 31 51 58 58 55 52 51 47 43 38 33 31 30 29 29 27 24 21 19 17 16 15 11 9 9 11 13 15 15 17 18 20 19
4 4 4 2 3 7 8 15 11 13 4 19 13 9 13 33 43 50 58 57 55 53 50 47 44 40 34 30 29 29 27 26 24 22 20 19 19 17 16 16 10 11 12 18 18 18 19 18 21
4 1 4 5 7 5 13 10 9 11 17 9 5 5 25 44 45 48 56 55 56 55 52 49 45 40 35 31 30 30 29 28 27 25 23 21 19 15 17 17 19 19 17 19 21 24 23 24 24
3 4 6 5 13 5 16 17 21 11 12 8 8 9 43 45 47 51 53 54 57 57 55 52 49 46 41 37 34 34 32 31 29 27 26 23 20 21 25 24 28 26 25 23 25 29 28 29 27
5 6 7 13 21 10 16 12 12 11 11 18 21 35 51 47 43 44 51 51 50 50 51 52 50 49 45 42 37 37 34 30 30 28 27 27 25 24 26 24 25 20 17 18 23 28 27 32 31
7 18 12 13 5 12 22 17 9 19 4 7 17 35 56 53 47 44 47 47 46 48 47 47 49 48 45 42 40 38 35 33 30 29 29 31 29 28 26 27 24 27 29 24 22 24 29 30 35
11 14 18 21 7 8 27 24 11 28 9 17 25 41 49 50 47 42 40 42 44 42 41 40 40 42 45 44 42 39 36 34 32 30 29 32 29 26 26 24 26 24 23 21 21 22 25 28 31
21 24 26 12 8 17 22 14 13 20 18 30 32 42 44 44 46 42 44 42 43 43 40 37 32 32 38 42 43 40 35 34 34 27 25 27 29 29 28 26 23 24 22 20 21 20 19 29 31
16 15 14 23 7 4 16 8 20 19 32 35 33 35 39 43 45 48 42 42 42 44 41 37 31 28 29 33 39 40 35 34 32 30 27 26 29 30 29 28 29 25 27 29 27 27 28 26 27
7 5 9 12 14 6 11 11 5 23 38 35 33 33 34 43 47 46 47 46 49 43 41 24 32 25 27 33 35 35 33 35 35 34 35 34 36 36 33 31 32 28 27 26 28 28 28 29 28
13 5 9 10 10 8 6 7 14 24 30 33 32 33 35 34 39 43 45 49 50 47 46 42 34 24 20 29 34 33 32 34 37 40 42 43 41 41 41 37 35 34 33 32 29 29 28 30 27
5 6 9 13 15 10 4 4 4 20 28 32 34 31 32 35 31 33 38 38 42 41 36 34 44 37 27 20 27 32 26 31 37 40 46 42 42 42 45 41 40 37 40 37 36 35 34 29 26
2 6 14 12 4 3 6 1 5 14 25 30 34 36 37 37 32 30 37 35 30 30 31 29 34 32 33 35 25 27 34 39 44 54 50 39 40 41 47 48 44 43 40 40 35 33 37 38 34
5 11 13 6 7 3 1 4 4 11 26 32 33 35 39 35 37 29 30 32 25 22 20 25 27 25 15 18 23 21 28 28 46 49 39 38 43 38 44 49 53 51 49 45 41 39 37 36 34
6 10 6 10 2 8 4 7 6 7 7 18 25 34 35 38 35 32 33 39 32 26 15 11 25 31 30 8 11 23 19 19 23 17 13 17 38 42 45 51 57 56 57 55 46 43 39 38 35
12 9 11 7 12 4 4 8 10 10 13 10 23 28 32 34 40 38 29 26 37 38 30 10 10 16 18 14 8 17 21 10 15 16 17 43 46 51 59 62 62 67 62 57 52 46 42 40 41
3 5 4 5 8 3 6 8 7 3 19 21 22 23 24 23 29 25 24 18 21 26 35 24 7 5 3 7 8 10 15 20 18 21 20 30 36 40 44 50 62 65 64 63 56 52 50 47 46
7 6 5 6 3 7 3 7 13 9 17 14 18 21 18 11 10 11 10 8 12 21 30 26 22 2 2 6 8 7 12 14 11 14 23 29 34 42 40 36 37 50 59 60 56 50 51 52 49
8 9 5 7 5 6 3 6 17 12 11 13 32 25 18 16 14 11 10 8 10 20 26 22 21 26 13 9 11 8 10 6 14 20 23 27 33 37 47 41 27 31 43 48 49 47 50 52 46
14 9 7 9 11 9 6 9 2 4 6 13 21 16 24 24 16 12 17 17 16 19 23 23 20 16 13 11 8 8 8 8 17 19 22 24 30 36 43 44 32 17 13 29 34 30 29 38 45
12 8 6 10 2 6 1 8 21 15 12 14 22 22 35 28 16 15 24 25 24 27 26 25 27 22 14 12 13 13 6 9 16 21 24 26 28 34 37 38 36 24 16 17 24 29 32 31 30
3 14 7 1 7 13 6 7 12 5 22 19 24 36 34 27 14 16 24 29 27 22 26 29 22 18 20 17 9 10 4 13 14 16 21 25 29 33 35 29 30 31 11 19 26 28 25 25 25
8 9 6 8 3 6 7 9 3 6 9 29 31 38 39 30 26 24 30 33 32 29 23 22 23 20 16 12 7 2 6 10 14 17 21 26 31 35 37 30 25 24 15 9 9 15 26 29 20
6 6 12 10 11 1 5 7 3 11 12 28 26 27 37 37 34 32 33 31 32 27 24 20 15 13 12 8 9 12 12 14 17 20 24 30 36 40 42 39 34 27 20 15 12 13 10 22 35
Wind_Direction_850mb
17 11 358 15 105 50 56 75 333 60 143 103 157 178 184 99 199 47 160 163 163 160 155 155 151 146 142 144 143 150 150 147 138 129 131 134 125 120 120 124 125 124 125 126 125 125 125 124 119
17 1 22 355 49 62 50 359 39 41 92 119 130 116 116 100 81 147 151 159 163 159 157 156 153 149 149 147 150 154 153 149 143 142 142 134 129 128 125 131 127 119 118 128 134 133 134 130 124
7 12 351 50 60 52 44 52 73 117 108 118 127 74 59 43 235 156 159 157 162 162 160 158 155 150 155 152 155 158 158 156 154 148 146 140 136 135 133 134 131 138 148 138 132 131 133 135 128
5 18 33 46 40 64 343 74 119 145 79 108 115 78 68 32 155 153 160 159 163 164 163 161 161 159 160 159 158 160 165 163 163 160 158 154 149 148 144 141 142 138 145 145 143 139 142 141 136
358 36 32 34 10 4 35 101 139 130 71 75 126 80 82 30 144 159 162 162 166 165 165 164 165 163 163 161 164 166 169 172 174 174 169 169 161 154 152 149 151 149 158 160 154 149 149 151 155
31 49 38 19 2 333 49 138 130 135 79 112 104 105 85 118 154 163 165 165 168 168 167 168 168 167 166 164 163 170 177 180 184 186 187 183 177 171 158 158 161 168 177 179 189 169 168 173 178
31 359 22 302 327 303 199 140 139 137 132 114 138 104 133 158 162 165 169 171 171 174 174 173 170 170 173 174 171 175 181 189 194 196 199 198 198 198 193 194 186 194 198 201 197 193 190 192 198
99 324 311 283 287 284 166 147 154 151 135 138 156 148 170 172 167 169 173 175 178 182 184 184 179 177 180 184 186 188 195 197 201 205 210 206 216 218 219 219 229 230 228 220 225 215 210 212 216
116 157 240 257 210 245 167 148 146 145 142 162 172 154 171 160 164 169 173 180 186 191 194 197 199 199 199 202 206 204 207 211 212 216 220 222 221 230 235 238 239 251 254 251 228 232 226 224 221
71 330 267 261 249 227 185 158 159 164 167 161 123 126 159 161 165 171 177 185 192 196 201 205 210 214 217 217 218 220 221 224 226 228 231 234 237 236 255 250 243 249 257 270 240 229 229 233 226
177 243 285 300 247 238 176 173 173 167 203 208 181 155 160 167 173 180 186 189 193 198 204 209 214 219 222 224 225 225 227 231 237 242 241 238 241 246 249 252 250 254 256 265 250 237 228 227 233
271 253 263 293 275 173 162 170 201 207 284 222 193 164 167 174 178 183 190 196 198 200 207 214 219 222 223 228 231 232 236 242 246 251 253 251 247 249 254 257 257 255 267 274 258 243 236 236 232
210 314 304 296 231 206 153 185 199 214 278 164 162 165 174 181 187 190 194 201 206 210 215 222 228 229 229 230 235 238 246 253 256 263 262 258 259 252 256 262 265 266 259 262 255 248 246 243 241
306 308 304 342 212 156 162 184 180 196 166 151 166 174 182 187 193 200 206 208 213 214 220 225 232 236 238 237 240 244 248 254 259 268 267 265 258 254 256 262 271 260 255 249 250 249 252 246 243
303 326 44 27 349 359 123 146 229 168 163 159 169 185 191 197 200 209 213 219 223 224 227 230 233 241 242 242 242 246 252 254 255 264 269 268 271 270 263 267 269 269 269 256 251 252 252 252 249
353 36 7 7 12 11 176 252 210 170 171 170 175 195 201 209 217 218 225 228 231 233 235 223 221 249 248 255 247 247 252 257 256 262 269 271 271 277 274 269 265 269 264 256 252 252 253 252 249
21 29 342 318 14 323 169 285 350 175 186 177 183 202 210 218 229 231 235 241 245 249 250 239 242 253 265 256 250 254 258 263 266 268 270 271 270 272 275 275 268 263 261 257 248 251 253 253 252
359 351 315 309 345 2 208 197 22 181 191 194 195 206 219 221 234 241 247 247 249 254 254 256 242 251 256 255 250 250 255 261 266 275 278 278 269 265 269 271 271 268 262 258 252 251 252 254 252
173 282 302 326 342 21 6 291 331 198 202 204 212 215 227 232 238 260 250 252 255 245 249 249 248 252 263 262 263 262 260 272 285 280 273 277 281 267 266 266 266 265 263 261 258 256 251 252 256
200 287 306 279 350 272 86 15 315 227 217 217 216 226 233 240 244 249 246 245 254 245 254 251 235 234 283 272 261 279 270 301 315 294 279 279 281 279 274 271 267 265 261 259 254 251 253 253 257
221 264 297 305 75 74 147 271 245 228 242 215 224 235 240 245 252 260 258 247 240 240 254 250 237 248 263 224 242 245 280 351 20 20 39 331 299 286 277 266 264 264 261 255 256 254 253 257 257
276 205 275 245 196 246 302 277 255 223 254 224 225 231 237 242 252 268 271 250 251 245 234 226 213 226 222 219 285 231 230 318 306 309 334 307 304 295 283 272 264 259 254 253 254 255 253 253 253
272 200 15 102 139 206 161 256 271 272 243 229 206 227 241 242 248 259 260 268 255 232 223 211 168 53 228 274 250 224 267 301 314 315 327 328 326 323 308 284 264 256 251 248 247 251 249 251 253
152 212 89 93 119 254 103 255 270 226 238 213 200 219 218 223 211 231 213 224 223 213 210 214 219 199 356 203 169 210 286 294 311 330 338 350 356 356 343 316 276 256 247 243 241 245 249 250 252
175 193 190 214 199 271 130 215 264 276 252 233 184 194 195 182 187 164 161 178 183 186 191 201 218 227 291 157 176 208 238 232 315 325 337 344 349 3 8 351 329 275 250 237 236 242 252 242 246
190 237 229 241 256 296 177 237 252 319 193 144 153 173 178 183 194 134 131 131 148 158 163 173 179 182 166 149 169 202 183 299 319 327 331 334 344 346 351 1 359 357 269 230 220 225 234 239 245
152 195 77 117 101 256 275 265 266 226 190 179 166 168 182 182 177 149 126 124 127 133 136 143 150 158 160 165 165 170 208 315 325 328 340 343 337 336 336 340 355 358 288 262 237 236 239 243 259
281 132 171 165 221 250 237 271 259 202 206 205 180 189 180 169 142 109 116 120 120 117 126 132 144 156 153 148 151 178 243 330 348 358 3 5 1 358 354 340 341 353 327 258 230 232 228 225 233
143 191 65 109 281 248 274 284 249 287 243 191 197 194 169 150 152 146 143 135 132 129 131 135 138 141 139 132 93 41 3 29 31 21 12 7 5 5 5 4 354 358 349 317 281 256 236 237 251
211 181 204 226 189 216 325 297 212 264 220 187 185 169 160 156 153 153 149 148 142 137 134 141 145 145 139 131 82 73 61 53 43 32 28 23 15 10 8 7 7 349 330 339 280 269 287 260 260